Flag for Marshall Islands Weather past 2 weeks in Majuro, Marshall Islands

Now
79 °F

Sprinkles. Overcast.


Feels Like: 84 °F
Forecast: 82 / 85 °F
Wind: 9 mph from East

Location: Majuro Atoll


UV Index: 10 (Very high)

Visibility: 14 mi


Pressure: 29.78 "Hg

Humidity: 91%

Dew point: 76 °F

Location of MajuroLocation

Historic Weather in Majuro

°F

Majuro temperature yesterday

Maximum temperature yesterday: 87 °F (at 12:53 PM)
Minimum temperature yesterday: 82 °F (at 2:52 AM)
Average temperature yesterday: 84 °F

Past Weeks' High & Low Weather Summary

 TemperatureHumidityPressure
High87 °F (Apr 19, 12:53 PM)96% (Apr 13, 9:52 AM)29.88 "Hg (Apr 13, 9:52 AM)
Low75 °F (Apr 13, 10:51 AM)72% (Apr 12, 3:54 PM)29.72 "Hg (Apr 8, 2:53 PM)
Average81 °F85%29.80 "Hg
* Reported Apr 5 1:54 AM — Apr 20 1:56 AM, Majuro, Weather by CustomWeather, © 2014

Note: Actual official high and low records may vary slightly from our data, if they occured in-between our weather recording intervals... More about our weather records

Advertising

Historic Weather Conditions — Data for Previous 24 hours

 ConditionsComfort  
Time TempWeatherWind HumidityBarometerVisibility
1:56 AM
Apr 20
79 °FSprinkles. Overcast.9 mph91%29.78 "Hg14 mi
12:52 AM82 °FMostly cloudy.8 mph83%29.79 "Hg15 mi
11:58 PM
Apr 19
82 °FMostly cloudy.9 mph83%29.80 "Hg15 mi
10:50 PM82 °FMostly cloudy.8 mph83%29.81 "Hg15 mi
9:53 PM82 °FOvercast.8 mph83%29.81 "Hg15 mi
8:51 PM82 °FOvercast.14 mph83%29.80 "Hg15 mi
7:52 PM83 °FMostly cloudy.10 mph82%29.80 "Hg15 mi
6:51 PM83 °FMore clouds than sun.12 mph80%29.78 "Hg15 mi
5:52 PM84 °FMore clouds than sun.10 mph75%29.77 "Hg15 mi
4:51 PM85 °FMore clouds than sun.12 mph75%29.77 "Hg15 mi
3:55 PM86 °FMore clouds than sun.14 mph73%29.77 "Hg15 mi
2:53 PM86 °FMore clouds than sun.13 mph72%29.77 "Hg15 mi
1:52 PM87 °FMore clouds than sun.14 mph72%29.79 "Hg15 mi
12:53 PM87 °FMore clouds than sun.12 mph72%29.82 "Hg15 mi
11:50 AM87 °FMore clouds than sun.13 mph72%29.84 "Hg15 mi
10:51 AM86 °FMore clouds than sun.12 mph74%29.85 "Hg15 mi
9:56 AM85 °FMore clouds than sun.15 mph72%29.85 "Hg15 mi
8:55 AM85 °FOvercast.10 mph75%29.85 "Hg15 mi
7:50 AM83 °FOvercast.12 mph77%29.84 "Hg15 mi
6:50 AM82 °FOvercast.16 mph77%29.82 "Hg15 mi
4:56 AM82 °FPartly cloudy.10 mph81%29.80 "Hg15 mi
3:52 AM82 °FPartly cloudy.13 mph84%29.79 "Hg15 mi
2:52 AM82 °FMostly cloudy.10 mph82%29.80 "Hg15 mi
Weather by CustomWeather, © 2014

See weather overview